星链-32768 (STARLINK-32768)

导读

STARLINK-32768是美国太空探索技术公司Starlink星链互联网卫星星座的一员,于北京时间2025年1月6日发射入轨。作为星链项目批量部署的卫星之一,它将为全球范围提供低延迟、高速率的卫星互联网接入服务,完善星链星座的全球覆盖能力,服务通信、导航等多领域应用需求。

基本信息
目录编号:
62503
目录名称:
STARLINK-32768
国际标识:
2025-003S
轨道中心:
EARTH
卫星名称:
星链-32768
卫星全名:
星链-32768 (STARLINK-32768)
卫星状态:
在轨 (已飞行606 天)
发射日期:
2025-01-06 UTC
国别 :
美国 (US)
星等 :
--
轨道信息
数据来源 国际轨道数据
星历时间: 2026-09-02T02:22:31+0800
2天前
查看轨道信息
半长轴: 6861.14km
偏心率: 0.0001367
轨道倾角: 43.004°
近地点辐角 263.309°
升交点赤经 14.274°
平近点角 96.761°
近地点: 482.065km
远地点: 483.941km
周期: 94.266分钟
每日圈数: 15.275955
详细信息
固有亮度:
5
最大亮度:
2.5
卫星平台:
Starlink V1.0
覆盖范围:
全球
运营商:
太空探索技术公司
运营商所在国:
美国
制造商(研发单位):
太空探索技术公司
制造商所在国:
美国
使用方式:
暂无
卫星简介
Starlink 计划是 SpaceX 推出的全球卫星互联网项目,通过发射低轨道卫星,为全球尤其是偏远地区提供高速、低延迟的互联网服务。自 2019 年起,Starlink 已部署数千颗卫星,旨在缩小全球数字鸿沟,推动互联网普及。该项目还为军事、航空等行业提供通信支持,带来广泛经济效益。
2D轨道图
3D轨道图
轨道高度分析图
轨道倾角分析图
轨道综合分析图
查看轨道综合分析图
交会数据列表
事件ID 空间交会对象 最接近时刻(TCA) 交会距离 交会风险概率(CRP) 交会风险指数(CRI) 操作
CDM_260904-083905-931806-250321
2026-09-04T
08:39:18+0000
0.192 km
中距离
5.853305E-4 高风险 0.9
CDM_260904-160505-692106-250321
2026-09-04T
16:05:39+0000
0.424 km
远距离
2.313246E-4 高风险 0.82
CDM_260905-083405-692106-250321
2026-09-05T
08:34:16+0000
1.177 km
极远距离
1.15299E-5 中风险 0.56
CDM_260904-185105-931806-250321
2026-09-04T
18:51:18+0000
1.054 km
极远距离
1.064897E-5 中风险 0.56
CDM_260903-161005-855506-250321
HONGHU 2 (58555)
2026-09-03T
16:10:20+0000
1.311 km
极远距离
9.764845E-6 低风险 0.55
CDM_260904-171705-931806-250321
2026-09-04T
17:17:08+0000
1.312 km
极远距离
5.04463E-6 低风险 0.49
CDM_260904-173905-692106-250321
2026-09-04T
17:39:49+0000
1.659 km
极远距离
3.707941E-6 低风险 0.46
CDM_260904-192803-825706-250322
2026-09-04T
19:28:43+0000
1.574 km
极远距离
3.651476E-6 低风险 0.46
CDM_260905-100805-692106-250321
2026-09-05T
10:08:26+0000
1.821 km
极远距离
2.832311E-6 低风险 0.44
CDM_260903-081306-250306-863022
STPSAT-7 (68630)
2026-09-03T
08:13:35+0000
1.958 km
极远距离
2.471168E-6 低风险 0.43